Regional Weather Roundup
Issued by NWS

Home | Current Version | Previous Version | Graphics & Text | Print | Product List | Glossary On
Versions: 1 2 3 4 5 6 7 8 9 10 11 12 13 14 15 16 17 18 19 20 21 22 23 24 25 26 27 28 29 30 31 32 33 34 35 36 37 38 39 40 41 42 43 44 45 46 47 48 49 50
212
ASUS43 KMPX 190710
RWRMN
WEATHER ROUNDUP FOR MINNESOTA
NATIONAL WEATHER SERVICE TWIN CITIES/CHANHASSEN MN
200 AM CDT THU APR 19 2018


NOTE: "FAIR" INDICATES FEW OR NO CLOUDS BELOW 12,000 FEET WITH NO
SIGNIFICANT WEATHER AND/OR OBSTRUCTIONS TO VISIBILITY. N/A MEANS
CURRENT SKY AND/OR WEATHER CONDITIONS ARE NOT AVAILABLE.

MNZ060>063-068>070-190800-
   Twin Cities Metro

CITY           SKY/WX    TMP DP  RH WIND       PRES   REMARKS
TWIN CITIES    FAIR      30  17  58 NW5       30.28R WCI  25
ST PAUL        FAIR      30  16  56 NW7       30.28R WCI  23
CRYSTAL        FAIR      25  16  68 W5        30.27R WCI  19
BLAINE         FAIR      28  16  59 W3        30.27R
LAKEVILLE      FAIR      28  18  64 CALM      30.27R
EDEN PRAIRIE   FAIR      31  14  49 NW7       30.27R WCI  24
SOUTH ST PAUL  FAIR      31  15  53 CALM      30.27R
LAKE ELMO      FAIR      28  18  64 W3        30.27R
$$
MNZ001>005-007-008-013>017-022>024-027-028-190800-
   Northwest Minnesota

CITY           SKY/WX    TMP DP  RH WIND       PRES   REMARKS
BEMIDJI        FAIR      26  19  76 CALM      30.29S
HALLOCK        FAIR      34  28  80 SE3       30.31S
ROSEAU         FAIR      28  23  80 CALM      30.31R
WARROAD        FAIR      27  18  69 CALM      30.31R
THIEF RVR FALL FAIR      30  23  75 CALM      30.32R
CROOKSTON      FAIR      32  28  86 N6        30.33R WCI  26
FOSSTON        FAIR      27  16  63 CALM      30.32R
DETROIT LAKES  FAIR      32  25  74 CALM      30.32R
MOORHEAD       FAIR      34  28  80 CALM      30.32R
PARK RAPIDS    FAIR      27  18  69 W5        30.29R WCI  22
MAHNOMEN       FAIR      31  20  64 CALM      30.31R
$$
MNZ006-009>011-018-025>026-190800-
   North Central Minnesota

CITY           SKY/WX    TMP DP  RH WIND       PRES   REMARKS
BAUDETTE       FAIR      27  20  75 CALM      30.29R
FLAG ISLAND    FAIR      28  12  50 CALM      30.29S
INTL FALLS     FAIR      24  18  77 CALM      30.29R
WASKISH        FAIR      25  19  80 CALM      30.30R
BIG FORK       FAIR      25  18  74 CALM      30.28S
LONGVILLE      FAIR      25  19  80 CALM      30.28R
GRAND RAPIDS   FAIR      28  15  58 CALM      30.29R
CRANE LAKE     FAIR      18  16  93 CALM      30.31R
ORR            FAIR      23  12  63 CALM      30.26R
COOK           FAIR      21  18  86 CALM      30.28S
WALKER         FAIR      30  12  47 W3        30.29R
$$
MNZ012-019>021-037-190800-
   Northeast Minnesota

CITY           SKY/WX    TMP DP  RH WIND       PRES   REMARKS
DULUTH         FAIR      29  11  47 N8        30.25R WCI  21
ELY            FAIR      21  18  86 CALM      30.27R
HIBBING        FAIR      22  17  81 CALM      30.27R
EVELETH        FAIR      22  19  87 CALM      30.27S
DULUTH HARBOR  FAIR      27  19  74 CALM      30.28S
TWO HARBORS    FAIR      32  18  55 NW6       30.25R WCI  26
SILVER BAY     FAIR      25  19  80 CALM      30.25R
GRAND MARAIS     N/A     38  13  35 N8        30.24R
G MARAIS ARPRT FAIR      27   9  46 CALM      30.23R
$$
MNZ029>031-032-039>041-046>048-054>057-064-190800-
   West Central Minnesota

CITY           SKY/WX    TMP DP  RH WIND       PRES   REMARKS
FERGUS FALLS   FAIR      36  25  64 NE3       30.31R
WHEATON        CLOUDY    34  30  86 W3        30.34R
MORRIS         PTCLDY    34  28  80 NW3       30.31R
ALEXANDRIA     FAIR      33  21  61 W3        30.31R
ELBOW LAKE     FAIR      33  29  86 CALM      30.32R
WADENA         FAIR      27  19  74 CALM      30.30R
GLENWOOD       FAIR      34  25  69 CALM      30.32R
APPLETON       CLOUDY    34  28  80 CALM      30.32R
BENSON         CLOUDY    30  27  86 CALM      30.34R
ORTONVILLE     PTCLDY    36  28  75 NW6       30.32R
MADISON        PTCLDY    37  30  75 NW7       30.31R
WILLMAR        FAIR      34  21  60 NW3       30.34R
$$
MNZ033>034-036-042>043-049>051-058-059-190800-
   Central Minnesota

CITY           SKY/WX    TMP DP  RH WIND       PRES   REMARKS
ST CLOUD       FAIR      29  16  58 N3        30.29R
SAUK CENTRE    FAIR      29  24  82 CALM      30.31R
PAYNESVILLE    FAIR      30  24  79 W3        30.31R
AITKIN         FAIR      19  18  93 CALM      30.26S
PINE RIVER     FAIR      25  16  68 CALM      30.32R
BRAINERD       FAIR      28  17  63 CALM      30.29R
STAPLES        FAIR      25  18  74 CALM      30.30R
LONG PRAIRIE   FAIR      27  21  80 CALM      30.30R
LITTLE FALLS   FAIR      28  10  47 CALM      30.30R
LITCHFIELD     FAIR      32  16  51 CALM      30.30R
BUFFALO        FAIR      27  18  68 CALM      30.30R
MAPLE LAKE     FAIR      28  19  71 CALM      30.29R
HUTCHINSON     FAIR      34  17  50 NE3       30.30R
$$
MNZ037-044-045-052-053-190800-
   East Central Minnesota

CITY           SKY/WX    TMP DP  RH WIND       PRES   REMARKS
PRINCETON      FAIR      25  18  74 CALM      30.27R
MORA           FAIR      28  14  54 CALM      30.28S
RUSH CITY      FAIR      29  17  59 N3        30.27R
MOOSE LAKE     FAIR      27  14  59 CALM      30.25S
HINCKLEY       FAIR      30  14  51 N5        30.27R WCI  25
CLOQUET        FAIR      27  10  50 NW8       30.26R WCI  18
MCGREGOR       FAIR      27  23  86 CALM      30.27S
$$
MNZ071>073-080-081-089-090-097-098-190800-
   Southwest Minnesota

CITY           SKY/WX    TMP DP  RH WIND       PRES   REMARKS
MONTEVIDEO     CLOUDY    30  25  80 N3        30.33R
GRANITE FALLS  CLOUDY    30  26  87 W5        30.34R WCI  25
CANBY          PTCLDY    34  28  76 NW5       30.32R WCI  30
MARSHALL       CLOUDY    30  26  85 NW9       30.32R WCI  22
REDWOOD FALLS  PTCLDY    34  18  52 N5        30.30R WCI  30
OLIVIA         CLOUDY    34  25  69 NE6       30.30R WCI  29
PIPESTONE      PTCLDY   N/A N/A N/A N3        30.29R
WINDOM           N/A     28  12  50 NW12      30.27R WCI  18
WORTHINGTON    PTCLDY    28  23  81 N13       30.28R WCI  17
JACKSON        PTCLDY    28  23  80 NW9       30.27R WCI  20
TRACY          CLOUDY    35  26  70 N9        30.30R WCI  28
SLAYTON        PTCLDY    32  22  66 NW8       30.29R WCI  24
$$
MNZ065>067-074>077-082>085-091>093-190800-
   South Central Minnesota

CITY           SKY/WX    TMP DP  RH WIND       PRES   REMARKS
MANKATO        FAIR      24  20  84 N6        30.28R WCI  17
NEW ULM        CLOUDY    32  16  51 N6        30.28R WCI  26
ST JAMES       CLOUDY    23  19  86 NW9       30.28R WCI  13
FAIRMONT       CLOUDY    27  22  81 N8        30.27R WCI  19
GLENCOE        FAIR      27  19  73 NW3       30.28R
FARIBAULT      FAIR      28  18  64 CALM      30.26R
OWATONNA       FOG       16  14  93 CALM      30.25R VSB 1
WASECA         FAIR      19  16  86 NW9       30.27R WCI   9
ALBERT LEA     FAIR      25  23  93 NW6       30.24R WCI  18
$$
MNZ078>079-086>088-094>096-190800-
   Southeast Minnesota

CITY           SKY/WX    TMP DP  RH WIND       PRES   REMARKS
ROCHESTER      FAIR      24  23  96 NW7       30.22R WCI  16
RED WING       FAIR      28  16  59 E5        30.24R WCI  23
STANTON        FAIR      25  20  81 CALM      30.25R
DODGE CENTER   FAIR      25  19  80 N6        30.22R WCI  18
WINONA         FAIR      28  27  93 NW6       30.21R WCI  22
AUSTIN         FAIR      25  21  86 N3        30.22R
PRESTON        FAIR      28  23  80 N7        30.21R WCI  21
$$
ABBREVIATIONS USED IN REMARKS
   TC - TEMPERATURES IN CELSIUS
  WCI - WIND CHILL INDEX
   HX - HEAT INDEX
  VSB - VISIBILITY
$$




USA.gov is the U.S. government's official web portal to all federal, state and local government web resources and services.